Regional Weather Roundup
Issued by NWS

Home | Current Version | Previous Version | Text Only | Print | Product List | Glossary On
Versions: 1 2 3 4 5 6 7 8 9 10 11 12 13 14 15 16 17 18 19 20 21 22 23 24 25 26 27
000
ASPQ40 PGUM 250812
RWRPQ
WEATHER ROUNDUP FOR THE MARIANAS AND MICRONESIA
NATIONAL WEATHER SERVICE TIYAN GU
600 PM GSST FRI APR 25 2014

GUZ001>004-250900-
MARIANA ISLANDS-

CITY           SKY/WX    TMP DP  RH WIND       PRES   REMARKS
GUAM AIRPORT   PTCLDY    84  73  70 E9        29.82R HX  91
ANDERSEN AFB   PTCLDY    81  73  78 E9        29.82R
ROTA AIRPORT   MOCLDY    81  73  78 E12       29.82R
TINIAN AP      PTCLDY    82  73  74 E8        29.80R
SAIPAN AP      PTCLDY    82  72  69 E10       29.81R

$$

PMZ161-250900-
REPUBLIC OF PALAU-

CITY           SKY/WX    TMP DP  RH WIND       PRES   REMARKS
KOROR AP       PTSUNNY   84  75  74 NE9       29.74R HX  92
KOROR WSO      PTSUNNY   86  73  66 E6        29.75R HX  93

$$

PMZ171>174-250900-
FEDERATED STATES OF MICRONESIA-

CITY           SKY/WX    TMP DP  RH WIND       PRES   REMARKS
YAP AIRPORT    PTSUNNY   86  75  70 NE8       29.77R HX  95
CHUUK AP       CLOUDY    84  77  79 VRB5      29.75R HX  94
POHNPEI AP     NOT AVBL
POHNPEI WSO    MOCLDY    84  77  79 E8        29.80R HX  94
KOSRAE AP      NOT AVBL

$$

PMZ181-250900-
REPUBLIC OF THE MARSHALL ISLANDS-

CITY           SKY/WX    TMP DP  RH WIND       PRES   REMARKS
KWAJALEIN AP   MOCLDY    84  73  70 E20       29.81R HX  91
MAJURO AP      NOT AVBL
MAJURO WSO     MOCLDY    82  77  83 E8        29.78R HX  91

$$




USA.gov is the U.S. government's official web portal to all federal, state and local government web resources and services.